COSMOS 2251 DEB, 36073

Orbit data source: Space-Track

COSMOS 2251 DEB, 36073 is space debris in LEO originally from a launch on Wed, 16 Jun 1993 UTC launched from the Plesetsk Missile And Space Complex (PKMTR). The debris from Iridium 33, an American commercial communications satellite, has been tracked extensively since its accidental collision with the defunct Russian satellite Cosmos 2251 in 2009. This event, occurring at high speed in low Earth orbit (LEO), generated thousands of pieces of space debris, significantly increasing the risk of further collisions. The Iridium 33 debris cloud has impacted space traffic management and orbital debris mitigation strategies, making it a subject of ongoing study in space situational awareness.

Loading next visibility...
Identifier
36073, 1993-036AYL
Orbit
LEO
Country
Flag of CISCIS
Related business
Manufacturer
Unknown
Mission
Spacecraft
Bus & Motor
Unknown
Mass
Unknown
Launch date (UTC)
1993-06-16 (33 years ago)
Launch vehicle
Unknown
Launch site
Plesetsk Missile And Space Complex (PKMTR)
Object type
Payload
Rocket body
Debris
Shape & HBR
Unknown shape, 0.1 m
Radar Cross Section
Small (<0.1 m²)

Expand to show TLE details & history
Last TLE update: 3 days ago

TLE from 3 days ago
0 COSMOS 2251 DEB
1 36073U 93036AYL 26262.02492814  .00000242  00000-0  93455-4 0  9996
2 36073  74.0328 168.6198 0024755 174.7377 185.4041 14.35239029742287
Epoch: 2026-09-19T00:35Z
TLE epoch observation values (Epoch: 2026-09-19T00:35:53.791Z)
Latitude
0.00003°
Longitude
161.70629°
Altitude
794.513 km
Speed
7.447 km/s
True Right ascension
11h 14m 28s
True Declination
0° 00' 00"
Sunlit
Object was in daylight at epoch
Visualization orbit readout
Latitude
Unknown
Longitude
Unknown
Altitude
Unknown
Speed
Unknown
Apparent Right ascension
Unknown
Apparent Declination
Unknown
Sunlit
N/A
Visualization observer readout
Local Sidereal Time
00:55:48
Azimuth
Unknown
Elevation
Unknown
Doppler factor
Unknown
Orbital elements
Apogee altitude
789.597 km
Perigee altitude
754.197 km
Semi-major axis
7,150.034 km
Eccentricity
0.00248
Inclination
74.0328°
RAAN
168.6198°
Arg. of periapsis
174.7377°
True anomaly
185.37747°
Mean anomaly
185.4041°
Eccentric anomaly
185.39077°
Mean motion
3.58989 °/min
Orbital period
100.28 mins
BSTAR
0.000093455

Documentation

Showing up to 5 results
|